Wind_Speed
30 30 29 28 27 27 27 26 25 25 24 23 22 22 21 21 21 21 21 20 20 20 20 20 20 20 20 21 21 21 21 21 20 20 20 20 21 21 21 20 21 21 21
31 31 30 30 29 29 28 28 27 26 26 25 24 24 23 23 22 22 22 22 22 22 21 21 21 22 22 22 22 22 22 21 21 21 20 20 20 21 21 21 21 21 21
34 33 32 32 31 30 30 29 29 29 28 27 26 25 25 24 24 23 23 23 23 23 23 23 23 23 23 23 23 23 22 22 21 21 21 21 22 22 22 22 22 22 22
35 34 34 34 33 32 31 30 30 30 30 29 28 27 26 26 25 24 24 24 24 24 24 24 24 24 24 24 24 24 23 23 22 22 23 23 23 24 23 23 23 23 23
37 36 35 34 34 33 33 32 32 32 31 30 29 28 27 26 26 26 26 25 25 25 25 25 25 25 25 25 25 24 24 23 23 24 24 24 25 25 25 24 24 25 25
38 38 37 36 35 34 34 33 33 33 32 31 30 29 28 27 27 27 27 27 27 26 26 26 25 25 25 25 25 25 25 25 25 25 25 25 26 26 25 25 25 25 26
39 39 39 38 36 35 35 34 33 33 33 33 31 30 30 29 29 29 28 28 27 26 26 26 26 27 26 26 26 26 27 27 27 27 27 27 26 26 26 26 26 27 27
41 40 39 39 38 37 37 36 35 34 33 33 32 31 31 31 30 30 29 28 28 28 28 28 28 27 27 27 27 27 27 28 28 28 28 27 27 27 28 28 28 28 29
40 39 40 39 39 39 38 38 37 37 36 34 33 32 32 32 31 30 30 29 29 29 29 29 29 28 28 28 28 28 28 29 29 29 29 29 29 30 30 30 30 30 30
42 41 41 41 40 40 39 39 39 38 37 36 36 34 33 33 32 31 31 31 30 30 30 30 30 30 30 30 30 30 29 30 30 30 31 31 32 32 32 31 32 32 32
44 44 43 43 42 41 41 41 40 39 39 38 38 37 35 35 34 34 33 33 32 32 32 31 31 31 31 31 31 31 31 31 31 32 32 33 33 33 33 33 33 33 34
44 44 44 44 44 43 43 42 41 41 41 40 39 38 38 37 36 36 36 35 34 34 33 33 33 32 32 33 32 32 32 33 33 33 34 34 35 35 35 35 35 36 36
46 45 44 44 44 44 43 43 42 42 43 42 41 40 40 39 38 37 37 38 37 36 36 35 34 34 34 35 35 35 35 36 36 36 36 36 36 37 37 37 38 38 38
47 46 45 45 44 43 43 43 43 43 44 44 43 42 41 41 40 39 39 39 39 38 37 37 36 36 36 36 37 37 37 37 37 38 38 38 38 38 39 39 39 40 40
47 47 47 47 46 45 45 44 44 44 45 45 44 43 42 42 41 41 41 41 40 39 39 38 38 38 38 38 38 39 39 39 39 40 40 40 40 40 40 41 41 42 42
48 48 48 47 47 46 46 46 45 45 45 46 45 44 44 43 43 42 41 41 41 41 40 40 40 40 40 40 40 41 41 41 41 42 42 42 42 42 43 43 44 44 44
49 48 48 48 48 48 48 47 47 46 46 46 46 46 45 45 45 45 44 44 43 42 42 42 41 41 41 42 42 42 42 43 43 43 43 43 43 43 44 44 45 44 44
50 50 50 49 49 49 48 48 48 48 47 47 46 46 46 46 46 46 46 46 45 45 44 43 42 43 43 43 43 43 42 42 43 43 43 44 45 45 44 44 44 44 44
51 51 51 51 50 50 50 50 50 49 49 49 48 47 47 47 47 47 47 47 47 46 45 45 45 45 45 45 44 44 43 44 44 44 44 44 45 45 44 44 44 44 44
50 51 51 51 51 51 51 51 51 51 50 50 50 49 48 48 48 48 48 48 48 47 47 46 46 46 45 45 45 45 44 44 44 44 44 44 44 43 43 43 43 43 42
50 50 50 50 50 51 52 52 53 53 53 52 51 50 50 49 50 50 50 50 49 49 48 48 47 46 45 45 46 45 45 45 44 44 44 44 43 43 43 43 42 42 42
50 51 51 51 51 51 51 51 52 52 52 52 52 52 51 51 51 51 51 50 50 50 49 49 48 47 47 47 46 46 46 45 45 44 45 44 43 42 42 42 41 41 42
50 51 51 52 52 51 51 51 51 51 52 52 52 52 52 52 52 52 51 51 50 50 50 50 49 49 48 48 48 47 46 46 45 45 45 44 44 43 43 42 42 42 43
50 51 51 51 51 51 51 51 51 51 52 52 53 53 52 52 53 52 52 51 51 50 50 50 49 49 48 48 48 48 47 47 46 45 45 44 44 44 44 44 43 44 44
49 49 50 50 51 51 51 51 51 51 51 52 52 53 53 52 53 53 53 52 51 51 50 50 49 48 48 48 48 48 48 47 46 45 46 45 45 45 45 45 45 45 45
47 48 48 49 48 49 49 49 50 50 50 51 52 53 53 52 52 53 53 52 52 51 51 50 50 49 48 48 48 49 48 47 47 46 46 46 46 46 46 46 46 46 46
Wind_Direction
243 244 245 247 248 248 248 249 249 250 251 252 254 256 258 259 261 263 263 264 266 269 272 274 275 277 278 277 278 281 283 284 287 288 289 288 289 291 293 293 294 294 296
242 244 244 246 247 248 249 250 249 250 251 253 255 255 257 259 261 262 263 264 265 267 270 273 275 277 278 277 277 279 281 282 285 286 286 288 290 291 292 292 292 292 293
242 243 245 245 246 247 248 250 250 250 251 254 255 256 256 258 260 262 264 265 266 268 269 272 274 277 277 277 278 279 279 281 282 283 285 287 288 291 292 291 292 292 293
243 244 245 245 245 246 247 250 250 251 253 254 255 256 256 258 260 261 263 265 267 269 270 273 274 276 277 278 278 277 278 279 281 282 284 287 289 292 292 292 291 291 292
243 245 245 245 245 245 247 249 250 252 254 255 255 257 257 257 258 260 263 265 267 268 270 272 273 275 276 277 276 276 276 277 279 281 283 286 289 291 291 291 292 291 291
244 244 244 244 245 244 245 247 249 251 252 253 254 255 257 257 258 260 263 265 266 267 270 271 272 273 274 276 275 275 276 277 278 280 282 285 287 289 289 288 289 290 290
243 244 244 244 245 245 244 246 248 250 251 252 253 255 256 256 258 260 262 264 265 266 269 271 272 273 273 274 274 275 276 278 279 280 282 284 285 287 287 287 287 288 289
245 244 244 244 244 245 245 246 247 249 251 252 253 254 256 256 257 259 261 263 264 265 268 270 271 272 272 273 273 274 276 277 279 280 281 282 284 286 286 286 287 288 288
243 243 243 244 244 245 246 246 247 248 249 251 252 254 255 256 258 258 258 260 263 265 267 269 270 271 272 272 273 274 276 277 278 279 280 282 283 285 285 286 286 287 288
243 244 244 244 245 246 246 246 247 247 249 250 252 253 255 256 257 258 259 261 263 265 267 268 269 270 272 272 273 274 276 277 278 279 280 281 282 283 284 285 285 286 287
244 244 244 245 246 247 247 246 247 248 249 250 251 252 254 256 257 258 259 261 263 265 267 268 270 271 271 272 272 273 274 276 278 278 279 281 282 283 284 284 285 285 286
245 245 244 245 247 248 247 247 249 250 250 250 251 252 254 256 257 259 260 261 263 264 266 268 269 270 271 272 272 273 273 275 277 278 279 280 281 282 283 283 284 285 285
245 246 245 245 247 248 247 248 250 251 251 251 251 252 254 255 257 259 261 262 263 264 266 267 268 269 270 271 272 273 274 275 276 278 279 279 280 281 281 282 283 284 284
245 246 246 247 247 248 249 249 249 250 251 251 251 253 254 255 256 258 260 262 263 263 265 267 268 269 270 271 273 273 274 275 276 278 279 280 281 281 281 281 282 283 284
245 246 247 248 248 250 250 250 250 250 250 251 251 252 254 255 256 258 260 261 262 263 264 266 268 270 271 272 273 274 274 276 276 277 279 280 280 281 281 280 281 283 283
245 247 248 248 248 249 249 249 250 251 250 251 252 252 253 254 256 257 260 261 262 263 265 266 268 270 271 273 273 274 275 276 276 277 278 279 280 281 281 281 281 282 283
246 247 248 249 249 250 251 250 251 251 251 251 252 252 253 254 256 258 259 261 262 264 265 266 267 268 270 272 273 275 276 276 277 277 278 279 280 281 282 282 282 282 283
246 247 247 249 249 250 250 251 251 251 251 251 252 253 254 255 256 258 259 261 262 264 265 266 267 268 270 271 273 275 276 276 277 277 278 280 280 281 282 282 283 283 283
247 248 249 250 250 250 251 251 251 252 252 252 253 253 254 255 256 258 259 260 262 263 265 266 267 268 269 271 272 274 275 276 276 277 278 280 281 282 282 282 283 283 283
248 248 249 250 250 251 251 252 252 252 253 253 253 253 254 255 256 257 259 260 262 263 265 265 266 267 269 270 272 273 275 276 277 278 279 279 280 281 282 282 283 283 283
248 248 248 249 250 251 251 252 252 253 253 253 253 253 254 255 256 258 259 260 262 262 263 264 266 267 268 270 272 273 274 275 276 277 278 279 280 281 281 282 283 283 284
248 248 249 249 250 250 250 250 251 252 253 254 254 254 255 256 257 258 259 260 261 262 263 264 265 267 268 270 271 272 273 274 275 276 276 277 279 280 280 280 281 283 285
248 248 249 249 249 250 250 250 250 251 252 253 254 255 255 256 257 258 258 259 260 262 263 264 265 266 267 269 271 272 273 274 275 275 275 276 277 279 279 279 280 282 284
248 248 248 249 249 250 250 251 251 252 253 254 254 255 255 256 257 257 258 259 260 261 262 263 264 266 267 269 270 272 273 274 274 274 274 275 276 277 278 279 280 282 283
249 248 248 249 249 250 251 251 252 252 253 254 254 254 255 256 257 257 258 259 260 261 262 263 264 266 267 268 269 271 272 273 273 273 274 274 275 276 278 279 280 281 283
250 249 249 249 250 250 251 252 252 252 253 254 254 255 255 255 256 257 258 259 259 260 262 263 264 265 266 268 269 270 271 273 273 273 273 274 275 276 277 278 279 281 282
Height
5822 5824 5826 5828 5829 5831 5833 5834 5836 5837 5838 5839 5840 5841 5842 5842 5843 5843 5843 5843 5843 5843 5843 5842 5842 5841 5841 5840 5840 5839 5838 5837 5836 5835 5834 5833 5832 5831 5830 5828 5827 5825 5824
5816 5818 5820 5822 5823 5825 5827 5829 5830 5832 5833 5834 5835 5836 5837 5838 5838 5838 5838 5839 5839 5839 5838 5838 5837 5837 5836 5836 5835 5834 5833 5833 5832 5831 5830 5829 5828 5827 5825 5824 5822 5821 5819
5808 5811 5813 5815 5817 5819 5821 5822 5824 5826 5827 5828 5830 5831 5832 5832 5833 5833 5833 5834 5834 5834 5834 5833 5833 5832 5831 5831 5830 5829 5828 5828 5827 5827 5826 5824 5823 5822 5821 5819 5818 5816 5815
5801 5804 5806 5808 5810 5812 5814 5816 5818 5820 5821 5822 5823 5825 5826 5827 5827 5828 5828 5828 5828 5828 5828 5828 5827 5827 5826 5826 5825 5824 5823 5823 5822 5822 5821 5820 5818 5817 5815 5814 5813 5811 5810
5793 5796 5798 5801 5803 5805 5807 5809 5811 5813 5814 5816 5817 5818 5819 5821 5821 5822 5822 5823 5823 5823 5823 5822 5822 5821 5821 5820 5819 5819 5818 5818 5817 5816 5815 5814 5813 5812 5810 5809 5807 5806 5805
5785 5787 5790 5793 5795 5797 5800 5802 5804 5806 5808 5809 5810 5811 5813 5814 5815 5816 5816 5817 5817 5817 5817 5816 5816 5816 5815 5815 5814 5813 5813 5812 5811 5811 5810 5809 5808 5806 5805 5803 5802 5800 5799
5775 5778 5781 5784 5787 5789 5792 5794 5796 5798 5800 5802 5803 5805 5806 5807 5808 5809 5810 5810 5810 5810 5810 5810 5810 5809 5809 5809 5808 5808 5807 5806 5805 5805 5804 5803 5802 5800 5799 5798 5796 5795 5793
5765 5768 5771 5775 5778 5781 5783 5786 5788 5790 5792 5794 5796 5797 5798 5800 5801 5802 5803 5803 5804 5804 5804 5804 5803 5803 5803 5802 5802 5801 5801 5800 5799 5798 5798 5796 5795 5794 5793 5791 5790 5788 5787
5756 5759 5762 5765 5768 5771 5774 5777 5779 5782 5784 5786 5788 5790 5791 5792 5793 5795 5795 5796 5796 5797 5797 5797 5796 5796 5796 5795 5795 5794 5794 5793 5793 5792 5791 5790 5789 5787 5786 5785 5783 5782 5780
5746 5749 5753 5756 5759 5762 5765 5768 5770 5773 5775 5777 5779 5781 5783 5784 5786 5787 5788 5788 5789 5789 5789 5789 5789 5789 5789 5788 5788 5787 5787 5786 5785 5784 5783 5782 5781 5780 5779 5777 5776 5774 5773
5736 5740 5743 5746 5749 5752 5755 5758 5761 5763 5766 5768 5770 5772 5774 5775 5777 5779 5780 5781 5781 5782 5782 5782 5782 5781 5781 5781 5780 5780 5779 5778 5778 5777 5776 5774 5773 5772 5771 5769 5768 5766 5765
5726 5729 5732 5736 5739 5742 5745 5748 5751 5753 5756 5759 5761 5763 5765 5767 5768 5770 5771 5772 5773 5774 5774 5774 5773 5773 5773 5773 5772 5771 5771 5770 5769 5768 5767 5766 5765 5763 5762 5760 5759 5758 5756
5716 5719 5722 5725 5729 5731 5734 5738 5741 5743 5746 5748 5751 5754 5756 5757 5759 5760 5762 5763 5764 5765 5765 5765 5765 5765 5765 5764 5764 5763 5762 5761 5760 5760 5758 5757 5755 5754 5753 5751 5750 5748 5747
5705 5708 5711 5714 5717 5721 5724 5727 5730 5733 5735 5738 5741 5743 5745 5747 5749 5751 5752 5753 5754 5755 5756 5756 5756 5756 5755 5755 5754 5754 5753 5752 5751 5750 5749 5747 5746 5744 5743 5741 5740 5738 5736
5693 5697 5700 5703 5706 5710 5713 5716 5719 5722 5725 5727 5730 5732 5735 5737 5739 5740 5742 5743 5744 5745 5746 5747 5747 5746 5746 5745 5745 5744 5743 5742 5741 5740 5738 5737 5735 5734 5732 5731 5729 5727 5726
5681 5685 5688 5692 5695 5698 5701 5704 5707 5710 5713 5716 5719 5721 5724 5726 5728 5729 5731 5732 5733 5734 5735 5737 5737 5736 5736 5735 5734 5734 5733 5731 5730 5729 5727 5726 5724 5723 5721 5719 5718 5716 5714
5669 5673 5676 5680 5683 5686 5689 5693 5696 5699 5702 5704 5707 5710 5712 5714 5716 5718 5719 5721 5722 5723 5724 5726 5726 5726 5725 5724 5723 5722 5721 5720 5719 5717 5716 5714 5713 5711 5709 5707 5705 5704 5702
5656 5660 5663 5667 5670 5674 5677 5681 5684 5686 5689 5692 5695 5698 5700 5702 5704 5706 5708 5709 5710 5711 5712 5713 5714 5714 5714 5713 5712 5711 5710 5708 5707 5706 5704 5702 5701 5699 5697 5695 5693 5691 5690
5643 5647 5650 5654 5657 5661 5664 5668 5671 5674 5677 5680 5682 5685 5688 5690 5692 5694 5695 5697 5698 5699 5700 5701 5702 5702 5701 5701 5700 5699 5698 5697 5695 5694 5692 5690 5689 5687 5685 5683 5681 5679 5677
5630 5633 5637 5640 5644 5647 5651 5654 5657 5660 5663 5666 5669 5672 5675 5677 5679 5681 5682 5684 5685 5686 5687 5688 5689 5689 5689 5688 5688 5687 5686 5685 5684 5682 5680 5678 5676 5675 5673 5671 5669 5668 5665
5616 5620 5624 5627 5630 5633 5637 5640 5643 5646 5649 5653 5656 5659 5661 5663 5665 5667 5669 5671 5672 5673 5674 5675 5676 5676 5677 5676 5676 5675 5674 5673 5672 5670 5668 5666 5665 5663 5661 5659 5658 5656 5654
5602 5606 5610 5613 5617 5620 5623 5626 5629 5632 5636 5639 5642 5645 5647 5650 5652 5654 5656 5657 5658 5659 5661 5662 5663 5663 5664 5663 5663 5662 5662 5661 5661 5659 5656 5655 5653 5652 5650 5648 5647 5645 5643
5589 5592 5596 5599 5603 5606 5609 5612 5615 5618 5622 5625 5628 5631 5633 5636 5638 5640 5642 5643 5645 5646 5647 5649 5649 5650 5651 5651 5650 5650 5648 5647 5647 5646 5644 5643 5641 5640 5639 5637 5635 5634 5632
5575 5578 5582 5585 5589 5592 5595 5598 5601 5604 5608 5611 5614 5617 5619 5622 5624 5626 5628 5629 5631 5633 5634 5635 5636 5637 5637 5636 5636 5636 5635 5634 5634 5633 5631 5631 5630 5628 5627 5625 5623 5622 5620
5561 5564 5568 5571 5575 5578 5581 5584 5587 5591 5594 5597 5599 5602 5604 5607 5609 5611 5614 5616 5617 5619 5619 5621 5622 5622 5623 5623 5622 5622 5621 5621 5621 5621 5619 5618 5618 5616 5615 5613 5611 5609 5607
5547 5551 5554 5558 5561 5565 5568 5571 5574 5577 5581 5583 5586 5588 5590 5592 5594 5596 5598 5600 5603 5604 5605 5607 5608 5608 5609 5609 5609 5608 5608 5608 5608 5608 5607 5605 5605 5603 5603 5602 5599 5597 5594